EW9501 Weather Reports


time (UTC)temp
C
wind
direction
speed
KPH
gust
KPH
rain 1hr
cm
rain 24hr
cm
rain mn
cm
humidity
%
barometer
mb
20260903043029 26 0.0 0.0 0.00 0.00 0.00 83 1010.8
20260903041520 26 0.0 0.0 0.00 0.00 0.00 83 1010.6
20260903040015 26 0.0 0.0 0.00 0.00 0.00 82 1010.4
20260903034514 26 0.0 0.0 0.00 0.00 0.00 82 1010.3
20260903033014 26 0.0 0.0 0.00 0.00 0.00 82 1010.1
20260903031513 26 0.0 0.0 0.00 0.00 0.00 82 1009.9
20260903030011 26 0.0 0.0 0.00 0.00 0.00 82 1010.0
20260903024510 26 0.0 0.0 0.00 0.00 0.00 82 1010.4
20260903023015 26 0.0 0.0 0.00 0.00 0.00 81 1010.6
20260903021511 27 0.0 0.0 0.00 0.00 0.00 80 1010.8
20260903020008 27 0.0 0.0 0.00 0.00 0.00 79 1010.8
20260903014508 27 0.0 0.0 0.00 0.00 0.00 78 1010.8
20260903013007 27 0.0 0.0 0.00 0.00 0.00 77 1010.7
20260903011508 27 0.0 0.0 0.00 0.00 0.00 76 1010.7
20260903010007 27 0.0 0.0 0.00 0.00 0.00 76 1010.5
20260903004518 28 0.0 0.0 0.00 0.00 0.00 75 1010.5
20260903003013 28 0.0 0.0 0.00 0.00 0.00 74 1010.5
20260903001517 29 0.0 0.0 0.00 0.00 0.00 70 1010.4
20260903000006 30 0.0 0.0 0.00 0.00 0.00 67 1010.4
20260902234505 30 0.0 0.0 0.00 0.00 0.00 65 1010.5
20260902233005 31 0.0 0.0 0.00 0.00 0.00 62 1010.4
20260902231504 31 0.0 0.0 0.00 0.00 0.00 61 1010.4
20260902230004 32 0.0 0.0 0.00 0.00 0.00 60 1010.4
20260902224504 32 0.0 0.0 0.00 0.00 0.00 60 1010.4
20260902223003 33 0.0 0.0 0.00 0.00 0.00 58 1010.3
20260902221502 32 0.0 0.0 0.00 0.00 0.00 58 1010.4
20260902220002 33 0.0 0.0 0.00 0.00 0.00 57 1010.4
20260902214501 33 0.0 0.0 0.00 0.00 0.00 57 1010.5
20260902213059 33 0.0 0.0 0.00 0.00 0.00 56 1010.6
20260902211614 33 0.0 0.0 0.00 0.00 0.00 55 1010.8
20260902210117 34 0.0 0.0 0.00 0.00 0.00 52 1010.8
20260902204559 34 0.0 0.0 0.00 0.00 0.00 53 1010.8
20260902203055 35 0.0 0.0 0.00 0.00 0.00 54 1011.0
20260902201609 35 0.0 0.0 0.00 0.00 0.00 52 1011.2
20260902200051 34 0.0 0.0 0.00 0.00 0.00 53 1011.4
20260902194552 34 0.0 0.0 0.00 0.00 0.00 57 1011.5
20260902193049 34 0.0 0.0 0.00 0.00 0.00 55 1011.7
20260902191551 34 0.0 0.0 0.00 0.00 0.00 54 1011.9
20260902190046 34 0.0 0.0 0.00 0.00 0.00 54 1012.0
20260902184546 34 0.0 0.0 0.00 0.00 0.00 55 1012.1
20260902183048 34 0.0 0.0 0.00 0.00 0.00 54 1012.3
20260902181554 34 0.0 0.0 0.00 0.00 0.00 58 1012.4
20260902180057 33 0.0 0.0 0.00 0.00 0.00 58 1012.6
20260902174540 33 0.0 0.0 0.00 0.00 0.00 60 1012.7
20260902173040 33 0.0 0.0 0.00 0.00 0.00 61 1012.9
20260902171537 33 0.0 0.0 0.00 0.00 0.00 59 1013.0
20260902170036 33 0.0 0.0 0.00 0.00 0.00 62 1013.0
20260902164535 33 0.0 0.0 0.00 0.00 0.00 62 1013.5
20260902163029 32 0.0 0.0 0.00 0.00 0.00 64 1013.5
20260902161529 32 0.0 0.0 0.00 0.00 0.00 64 1013.5
20260902160032 32 0.0 0.0 0.00 0.00 0.00 64 1013.5
20260902154524 31 0.0 0.0 0.00 0.00 0.00 67 1013.4
20260902153031 31 0.0 0.0 0.00 0.00 0.00 69 1013.5
20260902151520 30 0.0 0.0 0.00 0.00 0.00 69 1013.8
20260902150015 30 0.0 0.0 0.00 0.00 0.00 72 1013.3
20260902144525 30 0.0 0.0 0.00 0.00 0.00 73 1013.3
20260902143012 29 0.0 0.0 0.00 0.00 0.00 75 1013.3
20260902141505 28 0.0 0.0 0.00 0.00 0.00 77 1013.2
20260902140002 27 0.0 0.0 0.00 0.00 0.00 79 1013.2
20260902134559 27 0.0 0.0 0.00 0.00 0.00 83 1013.2
20260902133055 26 0.0 0.0 0.00 0.00 0.00 85 1013.2
20260902131553 25 0.0 0.0 0.00 0.00 0.00 87 1013.3
20260902130046 24 0.0 0.0 0.00 0.00 0.00 90 1013.2
20260902124543 23 0.0 0.0 0.00 0.00 0.00 91 1013.2
20260902123044 23 0.0 0.0 0.00 0.00 0.00 92 1013.3
20260902121541 23 0.0 0.0 0.00 0.00 0.00 92 1013.3
20260902120046 23 0.0 0.0 0.00 0.00 0.00 92 1013.2
20260902114540 23 0.0 0.0 0.00 0.00 0.00 92 1013.1
20260902113048 23 0.0 0.0 0.00 0.00 0.00 92 1013.0
20260902111544 22 0.0 0.0 0.00 0.00 0.00 92 1012.8
20260902110036 23 0.0 0.0 0.00 0.00 0.00 92 1012.7
20260902104541 23 0.0 0.0 0.00 0.00 0.00 92 1012.7
20260902103035 23 0.0 0.0 0.00 0.00 0.00 92 1012.8
20260902101538 23 0.0 0.0 0.00 0.00 0.00 91 1012.7
20260902100034 23 0.0 0.0 0.00 0.00 0.00 92 1012.8
20260902094533 23 0.0 0.0 0.00 0.00 0.00 92 1012.7
20260902093036 23 0.0 0.0 0.00 0.00 0.00 91 1012.5
20260902091536 23 0.0 0.0 0.00 0.00 0.00 92 1012.6
20260902090032 23 0.0 0.0 0.00 0.00 0.00 92 1012.7
20260902084532 23 0.0 0.0 0.00 0.00 0.00 93 1012.7
20260902083030 23 0.0 0.0 0.00 0.00 0.00 93 1012.7
20260902081531 23 0.0 0.0 0.00 0.00 0.00 93 1012.5
20260902080030 23 0.0 0.0 0.00 0.00 0.00 93 1012.4
20260902074529 23 0.0 0.0 0.00 0.00 0.00 93 1012.3
20260902073029 23 0.0 0.0 0.00 0.00 0.00 93 1012.1
20260902071529 23 0.0 0.0 0.00 0.00 0.00 93 1012.1
20260902070027 23 0.0 0.0 0.00 0.00 0.00 93 1012.2
20260902064527 23 0.0 0.0 0.00 0.00 0.00 93 1012.3
20260902063029 23 0.0 0.0 0.00 0.00 0.00 93 1012.3
20260902061541 23 0.0 0.0 0.00 0.00 0.00 93 1012.5
20260902060024 23 0.0 0.0 0.00 0.00 0.00 93 1012.4
20260902054526 23 0.0 0.0 0.00 0.00 0.00 93 1012.6
20260902053024 23 0.0 0.0 0.00 0.00 0.00 93 1012.7
20260902051522 23 0.0 0.0 0.00 0.00 0.00 93 1012.6
20260902050021 23 0.0 0.0 0.00 0.00 0.00 93 1012.5
20260902044518 23 0.0 0.0 0.00 0.00 0.00 92 1012.4